User: anonymous   Login
Location: Unspecified
(0.0000°N, 0.0000°E)
Time: 09:43:41
(UTC+00:00)
Language:

CICERO 6 - Orbit

View from above orbital plane
View from above orbital plane
View from above satellite
View from above satellite

Ground track
Ground track

The orbit data is extracted from the following two-line orbital elements,

1 42793U 17036AE  18018.17481819  .00000761  00000-0  36774-4 0  9994
2 42793  97.4223  80.3750 0009213 239.8876 120.1447 15.21591765 31785
Epoch (UTC): 18 January 2018 04:11:44
Eccentricity: 0.0009213
inclination: 97.4223°
perigee height: 495 km
apogee height: 507 km
right ascension of ascending node: 80.3750°
argument of perigee: 239.8876°
revolutions per day: 15.21591765
mean anomaly at epoch: 120.1447°
orbit number at epoch: 3178

The dashed part of the orbit path shows where the satellite is in the earth's shadow,  

DLR